Погода в Пивденном

Украина / Харьковская область     49°52′35″N   36°03′51″E
темп.,
°C
ветер,
м/с
пор.,
м/с
влажн.,
%
обл.,
%
осадки,
мм/ч
давл.,
гПа
погр.,
м
8 марта, пн
пн823:00−1зюз91585100 0.2 1010937
02:00−1зюз7138699 0.3 1009801
05:00−1зюз71387100 0.3 1009718
08:00−1зюз8128599 0.4 1008801
11:00+1з71082100 0.2 1009896
14:00+1зсз5971100 1.1 10091010
17:000зсз596793 0.0 1010608
20:00−2зсз487560 0.0 1012410
9 марта, вт
вт923:00−3з35790 0.0 1012248
02:00−3з357915 0.0 1013326
05:00−3зсз358199 0.2 1013523
08:00−3сз577695 0.3 1015847
11:00−3сз6761100 0.0 10161118
14:00−2сз6758100 0.1 10181273
17:00−4ссз5763100 0.0 10201062
20:00−6с466599 0.1 1022903
10 марта, ср
ср1023:00−6ссз3566100 0.0 1024836
02:00−7ссз356785 0.0 1025764
05:00−7ссз247013 0.0 1026511
08:00−7с236230 0.0 1027502
11:00−4с224384 0.0 1026792
14:00−3с113682 0.0 1026965
17:00−3ссв113959 0.0 1024806
20:00−4св124430 0.0 1025209
11 марта, чт
чт1123:00−4св12470 0.0 1026114
02:00−5всв12536 0.0 102681
05:00−5в12560 0.0 102666
08:00−4вюв224924 0.0 1028381
11:00−2юв213858 0.0 10281033
14:00−1юв223366 0.0 10271435
17:00−2юв233917 0.0 1027334
20:00−3юв48489 0.0 1028393
12 марта, пт
пт1223:00−4ююв610560 0.0 1028565
02:00−4ююв6105612 0.0 1027625
05:00−4ююв6115899 0.0 1026763
08:00−3ю8125399 0.0 1025926
11:00−1ю101442100 0.0 10231352
14:00−1ю101542100 0.1 10211241
17:00−2ю101773100 0.5 10171129
20:00−3ю101793100 2.7 10161101